Theta_e
314 312 311 312 312 314 315 317 318 320 320 320 323 320 317 322 324 320 321 322 317 332 343 345 340 340 347 347 348 350 349 351 350 347 352 353 347 349 349 350 350 342 337 337 338 338 338 337 336 334 331 329 326 323 318 314 313 313 314 314 314 315 315 314 313 317 323 327 331 333 334 335 335 336 336 336 336 336 336 336 336 335 335 335 334 334 335 335 334 333 333 329 316 315 328 332 333
312 311 311 312 314 316 317 319 322 323 321 318 322 322 320 322 323 321 322 322 323 340 348 345 344 345 346 344 345 348 350 349 346 348 351 348 348 349 348 349 345 339 337 337 338 338 338 337 336 334 332 331 329 324 319 315 312 313 314 314 314 315 315 314 314 319 325 329 333 334 334 335 336 336 336 336 336 337 336 336 334 333 333 331 329 329 333 335 333 332 330 321 310 320 332 332 333
311 311 311 312 316 318 319 321 323 323 319 316 318 322 321 321 321 320 320 320 328 343 347 344 347 346 345 349 347 348 351 348 347 349 348 347 348 346 345 345 341 339 337 336 337 337 337 336 335 334 333 333 331 325 319 315 312 313 313 314 314 314 316 315 315 320 326 331 334 335 335 336 336 336 335 336 336 336 335 333 332 331 328 322 318 318 322 326 329 328 324 315 311 322 329 331 332
310 311 311 312 316 319 322 323 327 324 318 317 316 319 322 322 321 319 318 321 332 343 345 346 350 347 348 357 350 348 351 348 349 348 348 347 346 345 344 341 340 339 337 337 337 336 336 335 335 335 334 333 332 328 321 316 313 312 313 314 314 314 316 315 315 320 327 331 333 335 335 335 337 336 335 335 334 333 332 330 327 322 316 311 310 309 310 312 316 318 317 316 317 322 325 328 328
310 311 310 312 316 319 321 322 326 322 315 319 318 321 324 321 321 318 317 326 335 342 346 347 351 348 349 353 348 349 352 348 349 348 347 347 345 345 343 341 340 339 338 338 337 337 335 334 335 335 335 334 333 330 324 318 314 312 313 315 314 314 316 315 315 320 327 330 333 336 335 336 337 336 335 334 333 331 326 321 315 311 308 307 308 308 308 308 308 310 315 320 323 325 325 324 322
310 311 311 313 315 317 319 319 322 321 317 320 320 325 327 319 318 317 316 327 338 343 346 348 349 349 349 349 347 349 350 348 350 348 347 347 346 345 343 341 340 339 339 338 338 337 335 334 335 335 335 335 334 332 327 320 315 312 313 314 315 315 315 316 315 319 326 329 334 336 337 338 337 336 335 333 332 326 317 311 308 308 308 308 308 307 307 308 308 310 317 322 326 328 326 323 320
310 311 313 316 316 315 320 322 321 321 319 320 320 323 323 318 315 316 317 321 336 345 347 347 347 350 352 350 349 348 348 349 349 348 348 348 347 346 345 342 341 340 339 339 339 337 335 334 335 336 335 335 334 333 329 322 317 313 312 314 315 315 315 316 315 318 324 330 335 337 338 338 336 336 335 333 328 319 311 308 308 309 309 308 308 308 308 307 310 315 320 325 328 329 326 322 320
310 312 315 319 320 317 319 320 318 320 319 318 318 319 318 317 316 317 319 317 326 344 348 348 347 353 354 349 349 349 348 348 348 349 349 349 348 348 346 344 343 340 340 339 338 337 336 335 335 336 335 335 334 333 330 324 318 313 311 314 315 315 315 316 315 318 325 332 336 337 338 338 337 336 335 331 324 315 310 308 309 309 309 309 308 308 307 308 314 319 324 327 329 328 325 321 320
310 314 315 319 320 317 319 319 317 317 317 316 315 316 316 315 317 317 320 318 321 341 350 348 347 354 354 347 348 348 348 349 348 349 349 350 350 349 347 346 345 342 340 339 338 337 336 336 335 336 336 335 334 333 331 326 319 314 312 313 315 315 316 316 317 320 328 334 336 337 337 337 337 336 334 329 320 313 310 309 309 309 309 309 309 308 308 311 317 324 327 329 329 327 324 321 321
312 316 316 318 318 317 319 318 318 316 316 316 314 314 315 315 316 315 318 318 320 342 351 348 348 352 351 347 347 348 349 350 350 350 349 350 351 350 348 346 346 343 339 338 337 336 336 336 336 336 336 335 335 333 331 327 319 314 312 313 315 316 316 316 318 323 330 334 335 336 337 337 336 335 331 326 317 311 309 309 310 310 310 309 309 309 309 312 319 325 328 329 329 327 324 321 321
315 316 314 316 318 317 318 317 318 317 317 316 314 315 315 316 315 314 316 316 322 343 350 349 350 348 348 347 347 348 349 351 351 350 351 350 350 351 348 345 346 343 339 337 336 336 336 336 336 336 336 335 334 333 330 327 319 313 312 312 315 316 316 316 318 324 330 335 335 335 336 336 335 333 329 322 314 310 309 310 310 310 310 310 310 309 310 313 318 325 328 329 329 327 325 322 322
316 317 317 319 319 318 318 319 318 318 319 318 317 316 315 316 316 316 315 316 332 347 349 349 350 348 347 348 346 348 350 350 350 349 350 350 349 349 347 345 344 342 339 336 335 335 335 336 336 336 336 335 334 332 329 325 319 313 311 312 315 317 316 316 318 322 328 334 334 334 336 336 335 333 326 318 312 311 311 310 310 310 310 310 310 309 310 313 319 324 328 329 329 328 325 323 323
317 316 317 320 318 318 318 318 319 321 322 318 317 315 316 314 314 317 313 319 343 352 351 347 347 347 347 347 346 348 349 350 349 349 349 348 348 347 346 345 343 340 337 335 334 335 335 335 335 336 335 335 334 330 327 325 319 312 311 312 314 317 317 316 317 320 324 330 332 333 335 335 335 332 323 315 314 313 312 311 310 310 310 309 310 310 311 315 320 324 327 328 328 327 326 325 325
317 314 316 318 315 316 317 316 317 318 319 316 314 315 315 315 322 321 314 331 349 350 350 347 345 347 348 347 347 347 348 348 347 347 346 347 347 346 345 344 341 338 335 333 333 333 333 333 333 334 334 333 331 326 325 323 318 312 311 311 314 316 318 317 317 319 321 326 330 333 335 335 334 330 321 315 316 315 314 313 312 311 309 309 309 310 312 316 322 326 328 328 328 328 326 326 327
317 315 316 317 314 314 315 315 316 315 316 316 313 315 313 319 338 328 313 338 351 347 348 347 345 348 349 347 347 347 347 347 344 342 343 344 345 345 344 342 339 336 333 332 332 332 331 331 331 331 330 329 326 322 322 321 316 311 310 311 312 315 318 317 317 318 320 324 328 331 334 335 335 330 321 317 318 317 316 315 313 312 310 309 309 310 314 318 324 327 328 328 329 329 327 327 327
316 315 316 315 314 314 314 314 315 316 316 316 312 315 313 317 341 336 322 337 348 348 348 347 345 345 347 345 347 347 347 345 340 338 340 341 343 343 342 340 338 334 332 332 331 330 329 329 328 327 326 324 322 320 320 318 314 309 310 311 312 314 317 318 318 318 320 323 326 329 330 333 334 330 324 320 321 320 318 317 316 315 312 310 309 310 314 319 325 328 328 329 330 330 327 326 327
316 317 319 316 315 314 314 314 314 316 315 317 312 313 314 314 338 347 338 341 348 349 348 348 346 343 344 343 346 347 346 343 338 337 338 339 341 341 341 339 336 333 332 331 330 328 328 328 326 325 323 321 320 318 318 316 311 309 310 310 311 313 315 317 317 317 319 321 324 326 325 327 329 327 326 324 322 321 320 319 318 317 315 312 310 309 312 319 326 328 329 330 331 331 328 327 327
316 319 321 318 316 313 315 316 314 314 315 316 312 313 314 315 338 349 346 347 348 349 348 348 348 346 346 343 345 347 345 342 340 339 340 340 339 338 339 337 334 332 331 330 328 328 327 327 326 324 322 320 319 317 317 315 311 309 309 310 310 311 312 315 316 316 318 319 321 323 322 323 325 325 326 326 323 322 322 321 320 319 317 314 312 310 311 316 324 329 329 330 331 331 330 329 328
317 318 319 318 317 312 312 315 313 312 314 314 312 314 311 318 340 347 349 350 348 350 350 348 348 348 347 345 346 347 345 343 342 342 342 342 339 336 335 334 332 331 330 329 328 328 328 327 325 323 321 319 318 316 316 314 311 310 310 309 310 310 311 312 314 314 315 316 317 319 320 321 322 322 323 325 324 324 324 323 322 320 319 316 314 313 311 312 320 328 330 330 331 331 331 331 330
316 316 319 320 317 314 312 312 313 314 314 313 313 313 312 326 345 347 348 349 348 350 350 349 349 348 348 346 346 347 346 344 343 343 343 344 341 337 334 332 331 331 329 329 329 329 328 327 325 323 321 319 317 316 315 314 312 310 310 309 310 310 310 310 311 312 313 314 314 315 317 319 319 319 320 321 321 323 324 324 324 322 320 318 316 315 314 312 314 323 330 330 330 331 331 331 331
316 316 320 320 315 315 315 314 315 316 314 313 312 313 313 323 336 343 348 349 350 350 348 348 348 347 347 347 347 347 346 345 344 344 344 344 343 338 334 332 331 331 330 329 330 329 329 327 325 324 322 320 318 316 314 314 313 312 311 310 310 310 310 310 310 311 311 311 312 312 313 315 315 315 316 317 317 319 321 323 323 323 322 320 319 317 316 314 312 317 326 331 330 331 332 332 332
315 315 316 316 313 314 315 314 315 315 314 313 312 314 314 319 331 342 348 350 349 347 347 347 344 345 346 346 347 347 347 345 345 344 344 345 344 339 334 332 332 331 331 330 331 330 330 328 327 325 323 321 319 316 314 313 313 313 313 312 312 312 311 311 311 311 311 311 310 311 311 312 313 313 314 315 316 316 317 318 320 322 322 321 320 319 317 317 315 313 319 328 331 331 331 332 332
315 315 312 313 314 313 315 314 315 314 313 313 312 314 313 321 339 346 345 345 344 343 347 347 346 345 345 346 347 347 347 346 345 345 345 345 345 343 336 332 332 332 331 331 332 331 331 330 328 326 324 322 320 318 316 314 314 313 313 313 313 313 313 313 313 312 311 311 312 314 315 314 314 314 314 315 315 316 317 316 316 318 320 322 322 321 319 318 318 316 315 320 328 331 332 331 332
315 316 312 314 315 313 314 314 315 314 312 313 312 314 312 315 336 346 344 344 344 344 346 347 348 347 346 347 346 347 347 346 346 345 346 345 345 345 341 335 332 332 332 332 333 332 332 332 330 328 326 324 322 321 319 317 316 315 315 315 315 315 315 315 316 315 316 318 322 325 325 324 322 320 318 318 320 324 325 321 317 317 318 320 321 322 322 321 321 320 318 316 320 327 331 331 332
313 314 312 314 314 313 315 314 314 313 313 314 312 314 312 315 334 346 346 346 347 347 347 348 348 347 346 346 346 346 346 346 346 345 345 345 346 346 345 341 335 332 332 333 333 333 333 333 332 330 329 327 326 325 323 321 320 319 319 318 318 318 319 322 323 323 325 329 331 331 331 331 330 327 324 325 328 330 330 327 323 322 322 322 321 321 322 323 323 323 323 320 318 320 327 331 332
312 312 312 313 313 314 314 313 313 313 313 313 313 314 315 326 340 349 348 348 349 349 349 349 348 348 347 346 346 346 346 346 346 345 345 346 346 346 346 345 340 334 332 333 333 333 334 333 334 333 332 331 331 331 328 326 326 324 321 320 321 323 326 330 331 330 332 334 333 332 331 332 332 332 330 330 331 332 332 331 329 329 329 328 327 325 324 324 325 326 326 325 323 320 325 331 333
312 311 312 312 313 313 312 312 311 311 312 312 313 316 325 335 340 347 350 349 350 350 349 349 348 348 347 347 346 345 346 346 346 345 346 346 346 346 347 346 342 336 333 333 334 334 334 334 334 334 334 334 336 336 333 331 331 326 321 322 325 328 332 334 334 333 334 334 334 333 333 332 333 333 333 333 333 333 333 333 333 332 332 332 331 330 328 326 325 326 326 327 327 324 327 331 333
310 310 311 311 311 310 311 311 310 311 312 313 313 315 326 333 334 345 350 350 351 349 350 350 348 348 347 347 347 346 346 346 346 346 346 347 347 347 346 345 342 337 334 334 334 334 334 335 335 335 335 337 338 338 336 335 332 325 323 326 329 331 334 335 334 334 333 334 334 334 334 333 332 332 332 332 332 333 333 334 334 334 334 333 333 332 332 330 328 326 325 326 327 327 327 329 330
309 309 311 313 312 311 311 310 310 312 312 314 315 315 324 325 327 344 351 350 351 349 350 350 348 348 348 348 347 347 347 346 346 347 347 347 347 347 345 344 342 338 337 336 336 336 336 335 336 336 337 339 339 338 337 336 331 327 329 331 332 333 334 335 334 334 334 334 334 334 334 333 332 332 332 332 332 332 332 333 334 334 334 333 332 333 333 332 332 330 328 325 325 327 327 327 327
310 310 310 313 313 313 312 310 311 312 312 314 313 316 323 318 323 343 352 350 350 350 350 350 349 349 347 348 348 348 348 347 347 347 347 347 346 346 345 344 342 341 340 339 339 338 338 338 338 339 340 341 339 338 338 337 334 333 334 334 333 333 335 335 335 335 335 334 334 334 333 333 332 333 333 333 332 332 331 332 332 333 334 333 331 333 334 334 333 333 331 329 326 325 326 327 326
311 310 310 312 312 316 314 310 311 312 312 314 314 318 322 320 331 348 352 349 350 350 350 349 349 349 347 347 348 349 349 347 347 347 347 347 346 345 344 344 343 343 342 341 341 340 340 340 340 341 342 341 339 338 338 337 337 336 336 335 334 334 335 336 336 336 336 335 335 334 333 333 333 333 333 333 332 331 331 330 330 331 332 332 331 332 333 333 334 334 333 332 330 327 326 326 326
313 310 313 313 310 315 316 310 312 314 313 314 314 318 318 322 339 352 349 349 351 349 350 349 350 350 349 348 347 349 349 347 347 347 348 346 345 345 344 343 343 343 343 342 342 341 342 341 341 342 341 341 340 339 338 338 337 337 336 336 335 335 336 336 337 336 336 335 334 334 333 333 333 333 332 332 331 330 330 329 330 331 331 331 330 331 331 332 333 334 334 333 332 331 328 327 327
315 312 314 315 310 312 314 311 311 311 313 314 314 318 319 322 339 350 349 351 350 349 351 349 350 351 350 350 348 346 347 347 347 347 347 346 345 345 344 343 343 343 343 343 342 341 342 342 341 342 341 341 340 339 339 338 338 337 337 336 336 336 336 337 337 336 335 334 334 333 334 333 333 332 332 331 330 330 330 330 331 331 331 330 330 330 329 330 331 332 333 333 333 333 331 329 328
314 311 311 313 312 312 313 313 311 309 312 314 313 318 317 319 337 350 349 349 349 349 350 349 350 349 349 350 348 346 346 347 346 346 347 346 346 345 344 344 343 344 343 342 342 341 342 342 341 341 341 340 339 339 339 338 338 337 337 336 336 336 336 336 336 335 334 333 333 333 333 333 332 332 332 331 331 331 331 331 332 331 331 330 330 329 329 329 329 330 331 331 332 333 333 331 330
311 311 312 311 311 311 313 314 312 310 313 314 314 317 314 319 338 349 347 349 349 349 349 349 350 349 349 349 347 347 347 347 347 347 347 346 347 346 344 344 343 344 343 343 342 341 342 341 341 341 340 338 338 338 338 337 337 337 336 336 336 336 335 336 335 335 334 334 334 333 333 333 332 332 332 332 332 332 331 331 331 331 330 329 329 329 328 329 329 329 329 329 330 331 332 333 332
311 313 316 314 311 311 312 313 313 312 313 314 315 317 314 323 340 347 346 348 347 348 349 348 349 349 349 348 347 348 347 347 347 347 348 347 347 347 345 344 344 344 343 342 342 341 341 341 341 341 338 337 337 337 337 337 337 336 336 336 336 336 335 335 335 335 334 334 334 334 333 333 333 333 332 332 332 331 330 330 330 330 329 329 328 328 328 328 328 328 328 328 329 330 331 332 332
311 312 314 313 312 312 312 313 313 311 313 316 317 318 315 323 340 347 345 347 346 346 347 347 349 349 349 349 347 348 347 347 348 347 348 348 347 347 345 344 344 344 343 342 341 340 340 340 340 339 337 336 336 337 337 337 337 336 336 336 336 335 335 335 334 334 334 334 334 334 334 334 334 333 333 332 331 331 330 330 330 330 329 329 328 328 328 328 328 328 327 327 328 329 330 331 332
310 311 311 311 310 312 312 311 313 312 312 316 316 316 315 317 331 345 345 345 346 346 347 347 348 348 348 348 347 348 348 346 347 348 348 348 347 346 345 344 344 343 342 341 340 340 339 339 339 338 337 336 336 337 337 337 337 337 336 336 336 335 334 334 333 333 334 333 333 333 333 333 333 333 332 332 331 331 331 330 330 329 329 329 329 328 328 328 329 328 328 327 327 328 329 330 331
310 310 310 311 311 311 312 312 315 313 312 317 316 314 318 315 320 338 345 345 345 345 346 346 347 347 347 347 348 348 348 347 346 347 348 347 347 346 345 344 342 341 341 340 339 339 339 339 338 338 337 336 336 337 337 337 337 337 337 336 335 335 334 334 333 333 333 333 332 332 332 333 333 332 332 331 331 331 331 330 329 329 328 328 328 328 327 328 328 329 329 328 328 328 329 329 329
310 309 309 311 310 310 312 313 315 314 311 315 316 316 323 317 314 329 342 344 345 344 345 346 346 347 347 347 348 347 347 347 345 346 347 347 347 346 345 343 342 341 340 339 339 339 338 338 338 338 337 336 337 337 337 337 337 336 335 335 334 334 334 333 332 332 331 331 331 332 332 333 333 332 332 332 332 333 332 331 329 328 327 328 328 327 326 326 326 327 328 329 329 329 329 329 329
310 310 309 309 309 310 312 313 316 319 316 315 316 319 325 320 314 326 336 340 343 344 344 345 345 346 346 346 346 347 346 345 344 345 346 347 347 346 345 343 341 341 340 339 339 338 338 338 338 338 338 337 337 337 337 337 336 336 335 335 335 334 333 332 331 330 330 329 329 331 332 333 333 333 333 334 334 334 334 333 331 329 328 328 329 328 327 326 326 326 327 327 328 329 329 329 329
310 310 309 309 310 311 311 313 318 321 318 314 313 316 324 322 316 323 334 337 340 342 344 344 345 344 344 345 346 346 346 345 343 345 346 346 346 346 345 342 341 341 340 339 339 338 338 338 338 338 338 338 337 336 336 335 334 335 335 334 334 333 332 332 331 330 328 328 328 329 330 331 333 334 334 334 334 334 334 334 333 331 330 330 330 330 329 329 328 327 327 327 327 327 328 328 329
311 311 310 309 311 312 311 312 315 317 316 315 312 314 322 322 315 318 330 338 339 340 343 344 344 344 343 344 346 346 345 344 343 345 346 345 345 346 345 343 341 341 340 339 339 339 339 339 339 339 338 337 336 335 334 333 333 333 333 333 333 332 332 332 331 329 328 327 327 327 328 330 332 333 333 334 334 334 333 333 333 332 331 330 331 330 330 330 330 329 329 329 329 328 328 328 328
313 312 310 309 310 312 313 311 313 317 317 317 318 316 316 320 321 317 322 335 340 339 343 344 343 343 343 345 346 346 345 344 344 345 346 345 343 343 344 343 342 341 341 340 340 340 340 340 339 339 338 337 335 334 334 334 333 333 333 333 332 331 332 332 331 330 329 328 327 327 328 330 331 331 332 333 333 333 333 333 333 332 332 332 332 331 331 331 330 330 330 330 330 330 330 329 328
315 311 308 310 309 311 314 311 313 317 314 314 319 316 312 321 330 320 316 330 339 338 342 343 342 342 343 345 345 346 345 343 344 345 345 344 342 340 342 343 342 341 342 340 340 340 340 340 339 338 337 335 335 334 334 334 334 334 334 332 331 330 330 330 330 330 330 329 329 329 329 330 330 331 332 332 333 333 332 332 332 332 332 332 332 332 331 330 330 330 330 330 331 331 331 330 329
311 308 308 309 310 312 313 312 313 314 313 313 315 315 312 321 331 320 315 326 334 336 340 341 341 342 343 345 345 345 345 343 344 345 344 343 341 340 341 343 343 342 341 341 340 340 339 338 337 337 336 335 335 334 334 334 334 334 333 332 331 330 330 330 331 331 331 332 332 331 331 331 331 331 331 331 332 332 331 331 331 331 331 332 332 330 329 329 329 328 328 328 329 330 331 331 330
308 308 311 311 314 316 316 318 317 312 315 315 315 316 313 316 327 322 317 325 330 332 338 340 340 341 342 344 345 345 344 343 344 345 344 341 340 340 342 342 343 342 340 340 341 340 339 337 337 337 336 336 335 335 334 334 334 334 333 332 332 331 332 332 332 332 332 332 332 333 332 332 332 331 330 331 331 330 330 330 330 330 330 330 330 329 328 328 327 326 325 324 325 326 327 329 330
309 312 312 312 318 319 315 318 315 311 316 318 316 316 313 314 324 324 322 330 332 331 336 340 339 340 342 344 345 345 344 343 344 345 343 341 341 341 342 342 342 339 335 336 340 340 339 338 338 338 337 337 336 335 334 333 334 334 333 333 333 332 332 332 332 333 332 332 331 331 331 331 330 329 328 328 329 329 328 328 327 327 327 327 327 327 327 326 325 325 324 324 324 324 324 324 326
310 313 313 312 314 314 312 315 315 314 316 317 315 313 312 315 322 327 330 336 335 330 332 337 338 339 341 343 345 345 345 344 343 344 342 341 342 342 342 342 341 338 331 330 335 338 339 339 338 338 337 336 336 335 333 333 334 334 334 334 333 333 333 332 332 333 332 331 330 329 329 328 327 325 325 325 325 325 325 325 325 325 325 326 326 326 326 325 325 325 325 324 324 324 324 323 322
309 312 312 312 313 311 311 314 315 316 316 316 315 313 315 321 324 329 334 335 331 327 328 333 337 338 341 343 344 345 345 344 343 343 341 339 340 341 341 341 339 336 333 333 334 334 337 339 338 337 337 336 335 334 333 333 333 334 333 333 333 332 332 332 332 331 330 330 329 329 327 326 325 325 325 325 324 324 324 325 325 325 325 325 325 325 325 325 325 324 324 324 324 324 324 323 322
309 310 311 313 316 314 313 316 316 316 317 316 313 313 320 329 329 329 333 330 327 328 330 333 336 338 340 342 344 345 344 343 343 342 339 336 337 339 340 338 336 334 333 336 337 334 335 337 337 337 336 335 334 334 333 332 332 333 332 332 332 331 331 331 331 330 329 328 327 326 325 325 325 326 325 325 324 324 324 324 325 324 324 324 325 325 325 325 324 323 324 325 325 325 325 325 325
308 310 311 311 315 319 319 318 319 320 319 316 317 322 328 334 334 331 332 330 329 332 334 335 337 338 341 342 344 344 342 341 342 341 337 334 337 339 339 336 333 331 330 334 337 336 335 335 335 335 334 334 334 333 332 331 331 332 332 332 332 332 332 331 330 329 328 327 325 325 325 325 326 326 325 324 324 323 323 323 323 324 324 325 325 325 325 324 323 323 324 325 325 325 325 325 325
310 309 311 311 313 321 319 314 316 320 317 316 326 334 333 335 337 334 331 333 334 336 336 337 338 340 341 342 342 340 339 339 341 341 338 336 338 338 337 335 333 332 332 334 335 335 334 334 333 334 333 334 334 334 333 333 333 333 332 332 332 331 331 329 328 327 326 324 324 324 324 324 324 324 323 323 322 323 323 324 325 325 325 325 326 325 324 324 323 323 324 324 325 325 325 325 325
311 309 311 312 311 316 321 318 317 318 315 318 328 336 334 333 337 335 333 335 337 337 338 338 338 340 339 339 339 337 336 338 340 340 337 336 337 336 335 334 334 335 335 335 334 333 333 333 333 334 334 333 333 333 333 333 333 333 332 332 331 330 329 327 326 325 324 323 323 323 322 322 322 322 322 323 323 324 324 324 325 325 325 325 325 325 324 323 324 323 324 324 325 326 326 326 326
310 310 311 314 314 314 317 318 317 316 317 322 328 331 333 334 336 336 335 337 338 338 339 339 339 338 336 335 335 335 335 335 337 337 335 334 335 335 334 334 334 335 334 333 333 333 333 333 333 333 333 333 332 331 331 331 331 331 331 331 330 330 328 326 325 324 323 322 321 321 321 321 322 322 323 323 323 323 323 323 324 324 325 325 325 325 323 324 324 324 324 324 325 326 326 327 327
309 310 309 313 316 313 313 316 316 317 320 325 328 329 332 333 334 336 336 337 339 340 339 340 338 336 334 333 333 333 334 334 334 335 333 332 332 333 334 334 333 334 333 332 332 331 331 332 332 331 331 331 329 329 329 329 329 329 329 330 329 328 326 324 324 323 322 321 321 321 321 322 323 323 323 322 321 321 321 322 322 323 324 325 325 325 324 324 325 324 324 325 325 325 326 327 328
309 311 310 311 313 312 314 316 315 318 328 330 328 331 335 331 329 334 337 337 338 338 339 338 335 333 333 333 332 332 332 331 332 334 331 329 329 331 332 332 332 332 331 330 329 328 330 331 331 330 330 329 328 328 328 327 327 327 328 328 326 325 324 323 322 322 321 321 321 321 321 322 323 322 321 320 320 321 321 322 322 322 324 325 325 325 325 325 325 325 325 325 326 326 326 326 327
310 312 311 311 314 314 313 314 315 321 332 332 330 336 339 331 327 332 337 337 336 336 336 334 332 331 331 331 331 330 330 329 330 331 329 328 328 330 330 330 330 329 328 327 326 326 327 328 328 327 326 326 326 326 326 325 325 325 325 324 323 322 322 321 321 321 321 321 320 321 321 322 321 320 320 319 320 321 322 322 322 323 324 325 325 325 326 326 325 325 326 326 325 326 327 327 327
Wind_Speed
10 9 8 6 3 1 1 2 0 2 2 1 3 2 4 5 2 2 1 1 2 3 1 2 4 8 7 4 9 10 6 4 5 4 3 8 21 26 26 27 30 34 33 31 29 26 24 21 20 19 17 16 14 13 14 15 14 13 12 13 13 13 13 13 15 16 17 17 16 16 15 14 14 13 13 13 13 12 12 12 11 11 10 9 9 9 9 9 9 8 7 6 8 14 17 16 15
9 8 7 4 1 1 3 3 1 2 1 3 3 4 5 4 2 4 1 1 2 1 7 10 10 10 8 10 12 10 7 4 4 6 9 21 28 26 26 29 33 34 32 31 29 27 25 22 21 19 18 16 14 13 13 14 14 13 12 13 13 13 13 14 16 17 17 16 16 15 14 13 13 12 12 12 12 11 11 10 10 9 8 7 7 8 9 9 9 9 7 7 13 18 17 15 15
8 7 6 4 1 1 3 2 0 2 2 5 5 4 2 3 5 4 1 1 3 6 10 9 8 6 6 7 7 4 4 4 7 13 17 27 30 28 27 30 32 31 30 29 28 27 25 24 22 20 18 16 14 13 13 14 14 12 12 13 13 14 13 15 16 17 17 16 15 14 14 13 12 11 11 11 11 10 9 9 8 7 6 5 5 7 8 9 10 10 9 12 16 18 17 15 14
7 5 4 4 3 2 4 2 2 4 4 4 4 5 2 5 6 3 3 9 6 9 6 4 4 5 4 5 5 5 5 5 11 18 23 28 29 30 30 31 32 30 30 29 28 27 25 24 22 20 18 16 14 13 12 13 13 12 12 12 13 13 13 15 16 17 17 15 14 13 13 13 12 11 10 10 9 9 8 8 7 6 6 5 6 7 9 10 10 10 12 15 17 17 16 15 13
6 4 3 4 3 1 2 1 2 4 5 4 3 5 4 6 1 4 7 13 5 11 3 3 3 5 8 6 2 3 6 10 14 19 27 29 28 29 31 32 31 30 29 28 28 27 26 25 23 21 18 16 15 13 12 13 13 12 11 12 13 13 13 14 16 17 16 14 13 13 13 12 12 10 9 9 8 8 8 7 7 8 8 7 7 7 8 9 10 11 16 17 17 17 14 13 11
5 3 2 3 3 1 2 1 2 3 5 5 3 5 4 3 1 2 9 10 4 8 1 2 2 5 7 7 6 8 9 11 17 23 30 31 28 29 31 31 30 30 29 28 28 27 26 25 23 21 18 17 15 14 12 12 13 12 11 12 12 13 12 13 16 17 16 14 13 12 12 11 10 9 8 7 8 8 9 9 9 10 9 9 8 7 8 9 11 13 17 18 17 15 12 11 12
4 3 3 4 2 1 3 3 4 4 5 5 4 5 2 1 1 3 9 7 3 3 1 4 6 7 5 5 8 8 5 10 21 27 31 31 29 28 30 31 30 30 29 29 28 27 26 25 23 21 19 17 16 14 12 12 12 12 11 11 12 12 12 13 15 16 15 13 12 12 12 10 9 8 7 7 7 8 9 10 11 11 10 9 8 8 8 10 13 15 16 17 16 13 12 12 14
4 3 3 4 1 2 2 2 4 4 4 4 3 6 3 1 2 4 5 3 2 2 5 10 8 5 1 2 4 3 4 12 23 28 30 30 29 28 29 30 30 30 29 29 28 27 26 24 23 21 19 17 16 15 12 12 11 11 11 11 12 12 12 13 15 16 15 13 12 12 11 10 9 7 6 6 7 9 9 10 11 11 10 9 8 8 10 11 14 16 16 16 14 12 10 12 13
5 4 2 2 2 0 1 2 4 4 4 5 4 9 9 6 7 6 4 5 5 3 10 13 6 2 3 4 4 6 8 14 22 27 28 27 28 27 29 30 29 30 29 28 27 26 25 24 23 21 19 17 16 15 13 11 11 11 11 11 11 12 12 13 14 14 14 13 13 12 10 9 9 7 6 6 8 8 9 10 10 10 10 9 8 8 11 13 15 16 16 15 13 11 9 10 12
5 4 2 2 3 1 3 3 4 4 5 5 6 13 13 11 10 8 7 7 8 6 11 10 5 7 9 5 4 8 11 17 23 26 26 25 26 26 28 29 28 29 28 28 27 26 26 24 23 21 19 17 16 14 13 11 11 11 11 10 11 12 12 13 14 13 13 12 13 13 10 9 8 7 5 6 8 8 9 10 10 10 10 9 8 8 11 14 15 16 15 14 11 9 7 9 11
4 2 3 2 2 3 5 4 5 5 5 4 8 16 16 15 11 8 9 9 9 8 11 8 5 12 11 3 6 11 14 18 22 25 26 25 24 25 28 29 29 28 27 28 27 26 26 24 22 20 19 17 16 14 13 11 11 12 11 10 11 12 12 12 13 13 12 12 12 12 10 8 7 6 6 7 8 9 9 10 9 9 9 9 8 9 10 13 14 15 14 12 10 7 6 7 9
3 0 3 2 3 4 4 3 5 6 6 4 7 7 7 9 8 6 10 10 8 9 12 11 11 17 9 1 7 14 18 19 22 24 25 25 24 26 29 30 29 28 27 27 27 27 25 24 22 20 18 17 16 14 13 12 11 12 12 11 11 11 12 12 13 13 13 12 11 10 10 8 6 5 6 8 8 9 9 9 9 8 9 9 9 9 11 13 14 14 13 12 9 7 4 5 8
5 2 5 2 3 3 3 2 4 5 5 4 5 3 8 5 7 9 11 11 10 10 11 16 19 16 7 4 10 16 21 22 22 21 23 24 25 27 28 29 28 27 27 27 27 26 25 24 22 21 19 17 16 15 13 12 11 12 12 11 11 11 12 12 13 13 12 12 11 10 9 8 6 5 6 8 8 8 9 9 9 8 8 9 9 10 11 13 14 14 13 12 9 6 4 3 6
7 4 5 2 1 2 3 3 2 2 4 4 3 6 13 7 5 11 12 10 10 12 13 19 24 14 7 7 9 20 25 23 22 20 23 23 24 26 27 28 27 27 27 27 26 25 24 23 22 21 19 18 17 15 14 13 11 12 12 12 11 11 12 13 13 13 12 12 11 10 9 7 6 5 6 8 8 8 8 8 8 8 8 9 9 10 12 13 14 14 13 11 9 6 4 2 3
9 5 4 2 0 1 2 4 2 3 5 2 0 9 15 10 5 8 15 12 6 14 16 19 23 9 9 12 12 28 29 24 23 21 24 23 24 25 25 27 26 27 26 26 25 24 24 22 22 20 19 18 16 15 14 13 12 12 13 12 12 11 12 12 13 12 12 12 11 10 10 8 6 5 6 7 7 6 6 7 7 7 8 9 9 10 12 14 15 15 13 11 9 7 5 2 1
10 4 4 1 2 3 3 4 2 3 5 4 3 12 13 11 7 2 12 14 12 18 18 18 21 5 11 17 17 34 30 25 25 22 25 23 23 24 23 25 26 27 26 26 25 24 23 22 21 19 18 17 15 14 13 13 12 13 14 13 12 12 11 11 12 11 12 12 11 10 10 9 7 6 7 7 7 6 5 5 6 6 7 8 9 10 12 15 15 15 14 11 10 9 6 3 1
9 3 3 1 3 4 4 4 4 3 5 5 8 14 9 10 7 5 4 16 21 20 16 18 18 6 12 17 22 36 29 27 27 25 26 22 24 24 23 24 25 27 27 27 25 24 23 21 20 18 17 15 14 14 13 13 13 14 14 13 13 12 11 11 11 11 11 12 11 10 9 8 8 7 6 6 6 5 4 4 4 4 5 7 8 9 11 14 16 16 14 12 11 9 8 5 3
7 3 2 4 4 5 5 6 5 3 4 6 11 13 6 9 5 9 8 14 21 16 12 17 12 5 12 17 27 36 29 30 29 27 26 22 25 25 25 25 27 28 27 27 25 23 22 20 19 17 16 15 14 13 13 14 13 14 14 13 13 12 11 10 10 10 10 11 10 9 7 6 6 6 5 5 5 4 4 3 3 3 4 5 7 8 9 13 16 16 15 13 12 10 9 7 4
7 3 2 5 4 5 5 6 4 2 6 10 15 13 8 7 1 7 5 8 14 12 9 12 10 10 15 19 31 35 30 31 29 29 28 25 27 27 28 28 29 29 27 27 25 23 21 20 18 16 15 14 14 13 13 13 12 12 13 13 12 11 11 10 9 8 8 8 8 8 7 6 5 5 4 5 5 5 5 4 3 3 3 4 5 7 8 11 15 17 16 14 12 10 9 9 6
8 5 2 6 5 5 8 9 8 11 13 11 12 13 11 3 3 4 5 6 6 7 10 12 13 18 20 26 35 34 31 32 30 30 28 27 27 28 31 30 30 29 28 27 24 23 21 19 18 16 15 14 13 13 13 12 11 11 11 11 10 10 10 9 8 6 6 6 6 6 6 6 5 5 4 5 6 6 5 5 5 4 4 4 4 6 7 8 12 17 18 16 14 12 10 9 8
6 6 4 5 4 4 11 11 11 15 13 9 11 12 11 4 4 5 10 7 2 7 19 24 24 26 26 33 37 34 33 32 30 30 28 27 26 28 31 31 30 28 27 26 23 22 20 19 17 16 15 13 13 12 12 11 11 10 10 10 9 9 8 8 7 6 7 6 5 4 4 5 5 4 5 6 5 5 6 6 6 5 5 5 5 6 6 7 9 15 18 18 16 14 12 10 10
2 4 6 6 4 4 8 7 8 11 9 10 10 8 9 7 4 12 17 8 3 11 22 28 31 33 32 38 39 36 35 32 32 31 28 28 26 27 30 31 30 28 27 25 24 22 19 19 17 16 14 13 12 11 11 11 10 10 9 9 8 8 7 7 7 6 6 5 4 3 3 3 4 3 3 5 4 4 5 6 6 6 7 7 6 6 7 7 8 11 16 19 18 16 14 12 11
3 4 5 8 9 7 9 10 12 13 10 10 8 9 11 7 4 15 21 5 6 9 19 23 27 32 35 42 42 39 38 35 34 32 29 28 26 26 28 31 30 28 27 25 23 21 19 18 17 16 14 13 12 11 11 10 10 9 8 8 7 7 6 6 5 5 4 3 3 1 1 2 3 3 2 2 2 3 4 5 6 6 7 7 7 8 8 8 8 10 13 18 20 19 17 15 14
5 4 3 8 13 12 14 15 16 16 12 13 13 12 12 8 4 13 16 4 7 7 17 22 24 29 34 40 41 39 38 35 34 31 28 27 26 25 25 28 29 28 26 25 23 21 19 18 17 16 14 13 12 11 11 10 9 8 8 7 6 6 6 6 5 5 4 3 2 1 1 2 2 2 2 1 1 2 2 3 4 4 5 6 7 8 9 9 9 10 11 14 18 21 21 19 17
5 5 4 7 13 15 17 17 16 17 14 15 12 8 14 11 4 11 7 2 3 10 18 23 26 30 33 35 35 36 36 34 33 30 28 26 24 24 23 24 26 27 26 24 23 21 19 17 16 15 14 13 11 11 10 9 9 8 7 6 6 6 6 6 5 5 4 3 2 0 1 2 2 3 2 2 1 2 2 3 3 3 3 4 6 8 10 11 10 10 11 12 14 19 22 21 20
5 8 7 7 12 16 17 15 14 15 13 11 5 7 13 6 4 5 1 5 11 15 21 25 28 32 31 29 30 32 34 33 31 29 28 26 24 23 22 22 24 26 26 24 23 21 19 18 17 15 13 12 11 10 9 9 8 7 6 6 6 6 6 5 5 5 3 2 1 1 1 3 3 4 4 4 4 4 4 4 4 4 4 5 6 8 9 11 12 12 12 12 13 15 20 22 21
4 6 8 9 13 16 15 14 15 14 13 11 7 8 8 3 2 1 4 12 16 20 25 26 29 30 29 28 29 30 31 30 28 27 27 26 25 24 23 22 23 25 25 24 22 21 19 18 16 15 14 12 11 10 9 9 8 7 6 6 6 5 5 5 4 4 2 1 2 3 3 4 5 5 6 7 7 7 7 6 6 6 5 7 9 9 9 11 13 14 14 14 14 15 18 22 21
6 5 5 8 11 13 12 12 15 9 8 9 7 4 5 1 2 3 11 16 21 26 27 27 29 29 27 28 29 29 29 27 26 26 27 27 26 24 23 23 23 24 24 23 21 20 19 18 16 15 14 12 11 10 9 9 8 8 7 7 7 6 5 5 5 4 2 3 4 5 5 6 6 7 8 8 9 9 10 9 9 9 8 10 12 11 10 12 12 14 15 16 16 17 18 21 23
5 3 2 7 7 7 9 9 9 4 3 5 7 2 5 3 4 4 16 20 23 25 26 27 29 28 28 28 29 29 28 26 25 27 27 26 25 24 23 21 22 23 23 21 20 20 19 17 16 15 14 13 11 11 10 9 9 8 7 7 7 7 6 5 5 4 4 5 5 6 7 7 7 8 8 9 10 10 11 11 11 11 11 13 15 13 12 14 14 15 16 17 19 20 20 21 23
4 1 2 3 6 6 6 6 6 4 4 7 8 2 5 6 6 7 19 22 24 23 25 28 28 28 28 28 28 27 28 27 26 27 27 24 23 23 21 20 21 22 21 21 20 20 19 17 16 15 14 13 13 12 11 9 9 8 7 7 7 7 6 4 5 5 6 6 6 7 7 8 8 9 9 10 10 11 11 11 11 11 12 15 16 14 14 16 16 17 17 18 19 21 22 23 24
1 1 1 1 1 5 7 2 2 2 3 9 10 1 6 6 4 11 19 24 27 25 25 27 27 28 28 29 28 26 26 27 27 27 25 23 22 22 21 20 21 21 20 20 20 19 19 18 16 15 15 14 13 13 11 10 9 8 7 6 7 7 7 6 6 6 7 7 7 7 7 8 8 9 9 10 10 10 10 9 9 10 12 14 16 16 17 18 18 19 19 19 20 21 22 23 24
2 2 2 1 3 5 8 3 5 5 2 8 9 1 4 4 4 13 18 23 26 24 26 26 24 26 27 28 29 26 24 26 27 26 24 23 22 22 21 20 21 21 21 20 19 19 19 18 17 16 15 14 13 13 12 11 9 8 7 7 7 8 8 7 7 7 7 8 7 7 6 7 8 8 9 10 10 9 9 8 7 9 11 13 15 16 17 19 19 19 20 20 21 22 22 23 23
3 2 3 1 4 2 5 4 5 7 2 3 5 3 2 3 7 13 17 21 21 21 25 25 22 24 25 26 29 27 25 25 26 26 25 23 22 21 20 20 21 21 20 20 19 19 19 18 17 16 15 14 14 13 12 11 10 9 9 8 8 9 9 8 8 7 6 6 6 6 7 7 8 8 9 9 9 9 8 7 7 9 11 13 15 16 16 17 17 18 19 19 21 22 23 24 23
3 1 2 2 3 3 2 4 4 2 1 1 2 4 3 3 9 16 19 22 19 18 22 23 23 24 24 25 28 27 26 26 26 26 24 22 21 19 19 19 20 20 20 19 18 19 19 18 17 16 15 15 14 14 13 12 11 11 10 9 9 9 9 8 6 5 5 5 6 7 7 8 8 8 8 9 9 9 9 9 9 10 11 11 13 14 14 14 14 15 16 16 18 19 21 24 25
4 3 3 2 2 2 2 4 3 3 0 2 2 3 4 1 8 14 19 23 20 18 22 22 22 24 24 25 27 26 26 26 26 26 23 22 20 19 19 19 20 21 20 19 18 18 18 18 17 16 16 16 15 14 13 13 12 12 11 10 10 8 7 5 4 4 5 6 7 7 7 7 8 8 9 9 9 9 10 10 10 11 11 11 12 12 12 13 13 14 14 14 16 17 18 21 24
8 6 5 4 4 3 3 5 5 1 2 3 3 5 3 4 8 10 16 21 19 18 20 20 21 23 24 25 27 26 25 26 26 26 23 22 21 20 20 19 20 21 19 19 18 18 19 18 17 17 17 16 16 15 14 13 12 11 10 9 7 5 4 4 4 4 5 6 6 6 6 7 8 8 8 9 9 9 9 9 10 10 11 12 12 12 12 13 14 15 15 15 15 16 17 18 20
8 6 4 4 4 3 4 4 6 1 2 4 5 7 5 7 9 9 16 18 15 15 16 17 19 22 23 24 27 26 25 26 26 26 24 22 22 20 20 20 20 21 20 20 19 19 19 18 18 18 18 17 15 14 13 12 10 8 7 5 4 3 4 5 5 5 5 5 5 6 7 7 8 8 9 9 9 10 10 9 9 9 10 11 11 12 12 13 14 15 16 16 16 15 15 16 17
6 6 5 3 3 3 5 3 6 2 2 4 2 5 6 7 9 9 13 13 12 16 17 17 18 19 22 24 26 27 26 27 27 27 26 24 23 22 22 21 21 22 21 21 20 20 19 18 18 18 18 17 15 14 12 10 8 6 5 4 4 5 5 4 4 4 4 5 5 6 7 8 9 9 9 10 10 10 11 11 10 9 9 10 11 12 12 13 13 13 14 15 16 15 15 16 17
3 3 5 1 2 3 5 4 6 2 3 4 2 6 6 5 6 7 11 13 15 22 24 24 22 19 20 23 25 27 28 29 30 29 28 27 25 24 23 23 23 23 21 20 20 20 19 19 18 18 17 16 14 13 11 9 8 7 7 6 6 5 4 3 3 3 4 5 5 6 7 8 9 9 10 10 11 11 12 13 12 11 11 11 12 12 13 13 13 12 12 13 15 15 16 16 16
3 3 5 2 3 1 1 3 5 3 1 2 3 4 5 4 1 4 11 17 19 24 26 26 27 26 26 28 29 31 31 31 31 30 30 28 27 26 25 24 24 23 21 20 20 19 19 19 18 17 16 15 14 12 11 10 9 8 7 6 5 4 3 4 4 5 6 6 7 7 8 9 9 9 9 10 11 12 13 14 14 14 14 14 14 14 15 15 15 14 13 13 14 15 16 17 16
4 5 6 4 3 3 3 2 3 4 4 1 5 3 6 2 3 4 10 14 13 16 20 20 23 26 27 28 28 30 31 31 30 30 31 29 28 26 25 25 24 22 21 20 19 18 18 18 17 16 15 14 13 12 11 10 9 7 5 4 4 4 4 5 6 7 9 9 10 10 10 10 9 9 10 11 13 14 15 15 16 16 17 17 17 17 18 18 17 16 15 14 14 15 17 17 17
4 5 7 7 6 5 4 2 4 5 5 2 3 1 5 4 4 8 8 9 9 10 14 17 20 21 21 22 25 28 29 30 30 30 30 29 27 26 26 25 24 22 21 19 18 17 16 16 15 14 14 13 12 11 10 9 7 5 5 5 5 5 6 7 9 10 11 12 12 13 12 11 11 11 12 13 14 15 15 15 16 17 18 18 19 19 20 21 20 19 18 18 18 17 17 17 18
3 5 8 8 7 7 5 1 3 2 2 3 3 4 4 6 5 9 8 11 12 10 11 15 20 20 20 23 26 29 30 30 30 30 30 29 27 27 26 25 24 21 19 18 17 16 15 14 14 13 12 11 11 9 8 7 6 5 5 6 7 8 9 10 12 13 13 13 14 14 13 13 13 14 15 16 16 16 16 16 16 17 18 18 19 20 21 22 22 22 21 21 21 20 19 19 19
3 6 9 9 7 7 6 4 3 2 3 4 3 4 2 4 5 7 6 11 12 10 10 13 18 21 22 25 28 32 34 33 32 31 31 29 27 27 27 25 22 20 18 18 17 15 14 14 13 12 11 10 9 7 6 5 5 5 6 7 9 10 11 11 12 13 14 14 14 14 14 14 15 16 17 18 19 19 19 19 19 19 19 20 20 22 22 23 22 23 23 22 22 22 22 23 22
5 5 9 9 8 8 6 5 3 2 1 5 4 2 2 4 6 3 2 9 10 11 13 13 17 22 24 26 29 33 35 34 33 33 32 29 26 24 25 25 22 19 18 17 16 15 14 13 13 12 11 10 8 6 6 5 5 6 6 7 7 9 10 10 12 13 14 15 15 15 16 16 17 17 18 19 20 21 21 21 21 21 21 21 21 22 23 23 23 23 24 24 24 23 22 23 24
4 5 7 5 5 5 5 5 4 1 1 6 6 2 2 4 5 1 3 6 10 11 11 12 18 23 25 26 29 31 32 33 33 33 31 27 24 23 25 26 24 22 21 18 16 15 14 14 13 13 12 11 9 7 6 6 6 6 6 6 6 8 9 10 11 12 13 15 15 16 17 18 19 19 18 19 21 22 22 23 23 23 22 22 23 23 24 24 24 24 24 25 25 24 23 23 23
5 7 6 6 4 3 4 2 3 3 3 7 6 6 4 2 5 3 3 5 9 11 9 10 15 22 26 28 31 33 34 34 31 30 29 25 24 26 26 25 24 22 20 18 16 15 15 14 14 14 13 11 9 7 6 6 6 7 7 6 6 7 9 10 10 11 13 14 16 17 18 20 21 21 21 21 22 23 24 25 25 24 24 24 24 24 25 25 25 26 27 27 27 26 25 24 23
7 4 5 5 3 3 4 4 2 2 6 6 5 7 6 3 5 5 6 5 5 9 11 12 14 20 28 30 32 35 36 34 30 31 32 27 26 28 26 25 24 22 19 18 17 15 15 15 15 14 12 11 9 7 6 7 8 8 8 7 7 9 10 11 11 13 15 17 19 20 21 22 22 22 22 22 22 23 24 24 24 24 24 24 24 25 25 26 27 28 29 30 30 30 28 26 26
6 4 6 5 1 1 0 1 0 3 5 4 3 5 4 5 6 5 7 6 4 6 10 17 21 25 30 31 32 33 33 32 29 31 31 27 27 28 27 26 25 25 24 22 20 18 18 17 15 13 12 11 10 8 8 9 9 9 8 8 8 9 11 12 12 15 17 19 21 22 23 23 23 22 21 22 21 21 22 23 23 24 24 24 24 24 25 27 29 30 31 32 32 31 30 28 29
7 5 6 5 3 3 4 3 2 3 4 3 2 3 2 5 3 4 7 7 7 9 11 18 27 30 32 33 32 30 30 30 31 34 31 25 25 27 27 27 25 24 24 24 23 22 21 20 17 15 12 11 10 10 10 9 9 9 9 9 9 11 12 13 14 17 18 20 22 23 24 24 23 23 22 22 22 22 23 24 26 26 26 25 24 25 26 27 28 29 30 30 30 29 28 27 28
6 5 6 5 5 5 4 4 3 4 3 2 2 2 3 2 2 4 6 8 10 10 9 14 20 22 25 28 28 26 28 30 34 37 34 27 26 27 27 27 26 24 21 20 21 22 22 19 16 14 12 11 11 10 9 8 8 9 10 11 11 12 13 15 17 19 20 23 24 23 23 23 23 23 24 24 23 24 25 25 26 26 25 24 24 24 26 26 26 26 27 27 26 25 24 23 24
3 3 5 4 5 5 3 3 5 4 2 2 2 2 3 3 2 3 4 6 7 5 9 13 14 17 20 23 24 25 28 32 35 36 34 32 31 30 28 28 27 26 24 20 18 18 18 16 13 11 11 11 11 10 10 9 9 10 10 11 11 12 14 17 19 20 22 24 23 21 22 23 24 24 25 25 24 24 24 24 23 23 22 22 23 24 25 24 24 24 25 24 23 22 20 19 19
2 3 5 5 5 6 4 2 0 4 3 3 1 1 2 2 2 1 3 4 5 7 10 13 15 18 20 20 21 24 28 32 35 36 36 35 32 29 28 28 26 25 25 22 17 14 14 14 12 12 12 12 11 11 11 10 10 10 10 11 13 16 18 20 21 21 22 21 20 21 23 24 24 24 23 22 21 21 21 21 22 22 21 22 23 23 23 22 22 22 23 23 22 21 19 18 17
5 5 6 4 3 2 4 2 2 3 3 4 0 2 2 1 1 2 6 7 8 8 8 11 15 17 17 16 19 25 29 33 36 37 34 31 30 29 28 26 24 23 22 21 17 14 13 13 12 12 11 11 11 11 9 9 10 10 11 13 15 19 21 22 21 21 20 19 19 20 21 21 20 20 19 19 19 19 20 21 22 22 21 21 21 22 21 22 22 22 22 22 21 20 18 17 16
5 6 7 6 3 3 2 3 2 2 2 3 2 1 3 3 3 4 8 10 10 9 8 9 12 15 16 17 20 26 30 33 36 35 31 28 29 31 29 26 24 23 23 20 17 15 15 14 12 11 11 10 9 9 9 9 11 13 14 16 19 22 22 21 20 18 17 18 18 18 18 17 17 17 17 17 18 20 21 21 21 21 20 20 20 21 20 21 21 21 21 22 21 18 16 16 15
4 5 6 4 3 4 3 3 3 4 3 2 1 1 2 4 4 6 10 11 10 10 9 10 12 16 19 21 24 28 30 32 35 34 30 28 29 29 28 26 25 24 22 21 20 18 17 15 13 11 11 11 10 10 12 14 16 17 19 21 22 22 19 17 15 14 14 16 16 16 16 15 15 16 16 17 18 20 21 21 21 19 19 19 19 19 19 20 19 20 20 20 20 18 16 15 15
4 6 6 3 1 2 2 2 2 3 4 2 1 1 4 5 4 6 9 10 11 11 10 9 13 19 23 24 26 28 29 30 34 35 32 30 31 29 27 26 25 23 19 18 18 15 13 13 11 10 12 12 12 14 18 20 21 22 22 21 18 15 12 11 11 11 13 14 14 15 14 14 15 17 18 18 19 19 20 20 20 18 17 17 18 19 18 18 18 19 19 18 18 17 16 14 15
6 5 5 5 4 4 4 3 1 2 3 3 4 2 6 5 3 4 7 9 10 11 10 7 12 20 24 25 26 27 28 30 34 35 33 30 31 29 27 26 25 21 17 15 13 10 9 10 11 11 12 13 15 18 19 19 19 18 16 12 10 8 8 9 10 11 12 12 12 13 13 14 16 17 18 18 18 17 18 18 18 17 16 16 17 17 17 17 17 18 18 17 15 15 15 13 13
Wind_Direction
260 262 268 267 273 209 147 115 127 335 81 219 234 234 248 237 274 294 294 344 303 319 35 146 146 146 146 145 141 111 70 137 156 140 185 151 147 157 159 162 166 167 167 163 162 163 166 169 171 170 166 161 157 155 151 146 141 139 134 135 138 141 142 142 143 142 140 136 133 131 129 128 125 123 122 120 117 115 116 116 116 117 120 122 123 123 122 124 126 123 125 121 122 122 122 131 128
252 258 263 248 234 183 201 123 147 302 63 260 250 203 249 306 295 253 226 141 252 45 95 106 103 107 101 105 113 94 54 52 128 120 128 143 148 156 159 161 165 168 168 166 164 165 167 170 172 172 168 164 158 155 151 147 144 141 137 137 141 144 145 146 148 146 143 140 136 132 131 128 125 126 124 123 123 121 122 122 121 123 126 129 131 135 140 139 137 135 135 131 131 129 128 135 131
251 256 253 227 150 119 159 92 145 168 185 237 257 228 267 302 245 256 182 267 273 131 107 99 84 70 73 90 84 81 84 63 134 130 134 150 154 156 158 162 166 169 169 168 168 169 169 171 173 173 171 166 161 157 152 150 147 143 140 139 143 146 146 149 151 151 148 144 139 134 135 131 127 128 127 125 124 125 125 124 125 130 133 140 148 155 165 165 160 153 144 135 134 135 135 136 134
252 251 244 207 150 101 105 74 160 151 202 223 255 249 219 223 243 314 286 314 288 169 120 75 64 47 62 93 82 76 107 125 148 143 145 157 158 155 160 165 168 170 171 171 171 171 172 173 174 174 172 167 165 160 154 153 150 147 142 140 144 147 147 151 155 154 151 146 140 138 139 134 130 130 131 127 122 122 119 121 127 132 134 140 148 158 172 177 173 159 144 136 132 134 137 140 143
252 247 237 200 166 133 110 98 134 160 213 192 237 254 221 220 270 349 316 329 260 182 121 94 87 73 81 73 74 92 134 143 150 153 151 157 160 158 163 168 170 172 172 173 173 174 175 175 175 176 172 168 168 164 159 156 154 151 144 142 144 148 149 152 157 157 154 148 140 141 140 134 131 133 132 126 119 117 114 116 119 120 123 127 135 149 163 168 167 152 141 136 131 132 136 142 145
246 224 189 172 161 147 136 177 192 219 229 178 216 256 242 250 304 316 323 345 154 169 139 152 139 111 91 52 68 113 133 150 158 159 155 156 161 162 165 169 172 174 174 174 175 177 177 177 176 176 172 170 171 169 164 159 157 153 145 143 144 148 150 152 158 159 156 147 142 143 137 132 133 132 127 122 116 116 115 111 111 113 116 121 127 136 150 154 152 144 139 135 132 133 136 134 125
222 187 153 145 133 81 140 199 209 231 244 186 199 253 244 141 192 308 332 352 111 164 202 146 131 115 98 78 90 108 132 162 161 157 156 157 160 165 167 171 175 176 175 176 177 179 179 178 177 175 173 173 174 173 169 164 160 155 148 143 145 150 151 152 157 159 155 148 145 141 133 132 132 128 126 122 117 118 114 110 110 112 114 119 123 126 136 143 142 140 137 133 133 135 134 125 115
199 175 140 132 92 27 133 220 232 222 245 232 230 262 259 162 260 310 325 303 299 283 150 136 130 102 82 138 110 122 146 156 159 156 157 158 161 167 170 173 177 177 177 177 178 180 180 178 177 176 174 175 176 176 172 167 161 157 150 145 146 150 150 151 157 158 154 149 144 138 134 137 134 132 133 123 122 120 112 110 112 114 115 117 117 118 126 138 140 139 137 134 136 139 134 120 112
177 164 136 120 156 318 296 265 260 234 253 273 271 267 267 263 267 268 262 265 269 228 160 151 132 119 134 100 98 133 146 154 158 157 158 161 165 169 173 176 180 179 178 178 179 180 180 179 178 176 176 178 178 177 175 169 164 159 152 148 147 150 152 151 157 159 155 150 144 139 140 143 143 144 138 126 126 121 113 113 115 116 115 113 112 114 125 138 143 141 139 139 142 144 134 114 105
162 161 152 107 145 221 275 268 259 249 257 258 261 263 268 263 255 236 230 256 243 193 165 161 118 132 136 100 110 137 148 154 157 158 161 166 170 173 176 179 182 182 179 178 179 180 180 179 178 176 177 180 179 178 177 171 165 161 156 152 148 149 153 154 158 161 157 153 148 142 144 151 155 155 143 134 131 124 118 116 115 114 110 107 109 114 127 140 145 144 142 144 148 150 133 109 98
156 152 135 115 146 208 232 255 258 266 277 282 279 266 269 263 249 226 221 245 235 186 167 171 129 130 122 108 150 148 152 158 160 160 164 170 175 178 179 181 183 183 182 179 179 181 180 179 177 177 179 180 179 179 179 174 166 163 159 154 148 148 152 156 159 163 159 152 149 145 148 153 157 162 150 141 135 128 121 118 115 111 108 105 109 119 133 142 147 146 145 149 156 159 139 109 94
170 98 97 122 177 200 209 247 256 276 290 289 286 277 300 264 227 205 212 226 205 163 174 181 155 138 113 106 165 158 159 164 166 162 166 172 176 179 181 182 182 183 184 182 180 181 181 178 175 176 179 179 179 180 180 175 168 165 162 156 150 147 152 158 161 166 164 155 152 150 152 150 152 167 155 143 138 131 123 119 116 112 110 105 109 123 138 146 149 149 150 156 164 174 161 112 91
178 140 101 148 195 186 187 229 262 300 296 259 250 322 351 287 219 214 206 201 177 154 183 182 158 140 112 142 163 165 164 167 166 165 169 171 176 179 181 182 182 183 183 184 182 182 181 178 176 176 178 178 180 181 181 177 171 168 163 158 152 149 151 158 165 170 171 164 159 153 150 150 158 172 159 149 141 132 127 121 118 116 113 106 110 127 144 152 153 153 155 163 173 189 193 129 95
184 164 135 181 212 164 176 228 269 297 278 267 238 340 342 314 260 240 206 184 184 171 177 172 158 137 120 141 164 172 167 168 168 171 173 172 177 179 180 181 182 182 182 184 184 184 182 179 177 177 179 180 183 182 181 177 172 169 164 160 154 152 153 161 168 172 175 173 167 154 145 150 168 176 160 152 143 134 131 126 120 117 115 109 113 130 148 157 157 158 161 170 182 202 215 173 110
188 167 127 133 248 253 212 214 203 187 254 281 307 347 341 333 339 248 205 177 170 166 158 159 163 149 161 168 178 174 166 167 168 170 171 171 177 177 178 179 182 182 182 183 185 186 184 182 179 179 181 181 183 182 180 175 171 169 165 162 156 155 158 163 169 174 177 176 172 158 146 150 169 182 167 157 148 141 137 132 123 118 117 113 115 134 152 161 162 164 169 179 191 211 226 213 151
185 161 86 115 217 237 213 202 162 163 256 260 320 351 345 336 10 301 218 178 136 151 154 157 171 180 183 180 174 168 164 164 163 161 163 164 169 170 173 177 181 180 181 184 185 187 184 182 181 180 182 180 182 180 178 175 172 170 166 164 159 159 162 164 170 175 179 177 176 168 158 158 170 183 174 168 161 153 147 138 130 122 121 119 118 136 158 167 168 171 176 186 198 216 235 242 242
175 147 90 215 206 205 206 197 174 181 272 275 328 353 353 329 7 64 186 163 142 149 155 157 175 205 185 176 165 164 162 161 158 156 156 155 162 166 171 175 178 177 181 185 185 186 183 182 181 181 181 179 181 179 177 176 174 171 169 167 163 164 166 168 173 176 181 180 179 178 175 170 177 184 177 183 179 167 164 151 143 133 128 128 124 135 161 174 176 178 183 191 201 218 241 253 258
166 119 158 215 197 201 191 186 202 214 299 300 318 341 354 325 356 108 114 137 135 137 143 155 173 202 182 171 163 164 162 160 159 158 156 158 167 168 172 175 178 179 182 184 185 185 183 181 180 180 179 178 179 179 178 177 176 173 171 170 167 169 171 174 179 178 181 182 184 188 191 184 185 191 186 204 204 188 188 181 168 156 146 142 135 136 156 179 185 185 188 195 204 219 241 256 256
176 115 179 222 203 212 208 203 227 280 292 299 306 321 340 321 325 127 117 124 131 125 124 148 142 138 165 167 164 166 163 163 163 163 163 165 171 173 175 178 180 182 183 184 183 183 182 181 178 178 177 178 178 178 179 178 176 174 172 172 171 174 177 180 183 182 181 181 185 193 203 204 206 209 205 220 229 222 216 214 209 197 181 169 157 145 150 176 190 193 194 197 206 219 234 256 261
196 170 201 242 217 234 252 242 252 275 281 293 300 311 332 324 162 133 129 133 142 142 144 151 142 143 158 165 167 168 166 167 167 168 169 168 172 177 179 180 181 182 184 183 183 182 181 179 177 176 176 177 177 178 180 178 176 177 174 172 175 179 181 181 181 183 184 188 188 190 203 208 218 227 229 236 241 241 239 236 229 227 216 202 187 169 158 169 189 197 199 199 207 218 229 249 261
197 185 204 235 198 231 259 256 262 278 281 282 293 310 328 318 213 172 141 138 203 205 180 173 169 162 160 165 169 171 171 171 172 174 174 171 172 176 180 181 181 183 184 183 183 183 180 178 177 175 176 175 176 177 178 178 179 180 176 173 176 179 180 179 178 185 192 201 201 198 207 212 221 228 240 251 258 257 253 252 244 239 232 223 213 197 180 173 185 198 202 202 206 217 225 239 252
190 209 219 227 206 230 263 277 285 291 292 287 296 312 316 319 265 184 165 164 231 215 195 183 180 175 168 168 170 173 175 175 176 179 179 177 173 175 180 181 182 184 184 184 183 182 180 178 177 175 175 175 175 175 176 180 181 182 180 177 177 176 177 179 181 191 198 205 207 213 227 243 252 252 253 254 268 275 268 264 256 249 241 235 227 220 206 191 188 197 204 205 207 215 222 231 242
227 259 236 240 243 243 271 287 291 292 289 284 285 300 300 313 293 188 178 214 304 230 201 186 182 178 172 170 171 174 178 179 180 181 184 182 177 176 180 182 184 185 185 185 183 182 182 180 178 176 176 175 175 175 177 179 179 181 179 177 174 170 169 174 180 187 189 187 187 202 255 287 294 292 276 254 272 287 283 273 266 259 248 244 237 232 227 214 203 200 205 208 210 214 221 227 233
210 260 260 259 261 260 275 281 288 289 284 286 286 296 291 280 261 186 185 268 315 230 198 184 176 171 169 169 171 175 178 180 181 183 186 185 181 179 181 184 186 186 186 185 184 183 183 182 179 176 177 176 175 176 176 174 177 179 175 170 162 157 155 161 167 166 163 158 153 134 17 332 319 311 301 288 305 296 283 273 271 266 254 251 245 240 237 232 221 212 211 213 213 215 220 226 228
203 237 255 266 270 270 280 283 288 292 291 297 291 275 277 277 199 166 187 272 186 182 179 172 167 167 168 168 170 174 177 181 182 184 187 188 185 183 184 187 188 189 189 186 185 184 184 184 180 178 177 175 176 178 176 173 176 177 172 163 152 151 154 159 164 161 157 153 144 113 348 327 303 295 294 284 285 277 272 261 260 264 263 263 255 249 243 239 234 224 220 220 219 217 218 223 226
205 216 236 253 269 275 285 288 290 295 297 296 279 263 275 272 140 148 133 151 163 164 162 161 162 164 165 168 171 174 178 180 182 183 186 190 189 188 189 190 191 191 191 189 187 185 185 186 183 178 175 174 176 178 179 177 177 175 168 159 151 153 162 167 171 169 165 166 190 265 288 296 286 284 283 275 266 260 263 259 261 262 266 275 269 263 253 244 239 234 228 226 226 221 216 219 225
231 225 241 251 265 277 284 286 289 292 293 277 237 256 268 182 152 256 141 153 161 155 152 156 161 163 165 168 172 176 180 181 182 183 186 191 191 192 192 192 194 193 192 193 190 188 188 188 183 177 175 175 177 180 182 181 177 169 164 161 158 160 170 175 177 174 174 199 237 259 267 274 274 277 275 272 269 266 267 267 270 272 274 277 271 268 266 258 248 241 235 229 229 226 219 219 225
284 283 275 271 273 281 279 277 286 285 285 266 208 241 289 200 282 201 156 157 158 153 150 156 162 165 167 170 174 179 182 182 185 186 190 194 192 193 193 191 193 192 193 194 191 190 191 189 185 179 178 179 178 178 177 177 171 162 164 169 168 173 180 185 188 182 193 223 245 252 259 265 267 272 270 270 272 274 277 277 280 281 282 274 267 270 272 270 264 255 246 237 232 229 226 224 228
308 323 290 297 315 302 273 263 272 241 231 227 152 34 322 248 282 154 153 157 154 152 150 155 162 166 169 172 176 181 184 186 189 193 197 197 193 192 192 191 192 192 192 194 193 192 191 190 188 186 184 181 176 171 167 166 162 160 169 179 180 185 188 195 199 199 216 233 247 251 257 260 261 263 262 266 269 273 276 279 283 285 285 274 269 273 273 271 269 265 258 249 241 235 233 230 231
299 334 158 303 343 313 270 254 255 217 207 192 147 15 283 260 284 157 154 157 151 151 154 158 163 167 172 176 178 183 188 191 194 199 201 198 194 192 191 191 192 193 191 191 193 191 190 190 189 191 188 180 172 166 163 162 162 165 174 186 191 194 196 204 209 215 228 238 248 253 256 252 251 253 254 259 261 266 270 273 280 281 283 278 275 277 273 271 269 265 263 258 252 245 240 238 237
272 234 174 273 273 274 281 288 207 193 205 172 145 154 249 274 277 166 162 160 154 153 160 164 166 169 175 180 182 184 190 195 199 202 202 198 195 192 190 189 190 192 192 191 191 189 189 189 189 192 188 180 173 166 164 166 168 171 176 190 197 199 206 215 222 226 232 240 247 249 252 249 250 254 257 263 264 267 270 272 279 281 283 280 279 279 274 273 271 267 264 260 259 254 249 245 244
33 196 275 312 178 263 300 305 176 199 225 152 139 159 255 283 205 173 168 164 158 155 162 168 170 170 173 181 185 185 191 199 204 204 203 200 196 192 190 188 189 190 192 193 190 188 189 188 188 189 184 180 176 171 170 173 176 179 185 194 198 204 212 219 224 228 234 240 248 252 256 259 263 268 270 273 273 273 272 270 272 275 278 276 276 278 276 273 270 267 263 259 258 256 253 250 248
0 185 229 240 176 240 309 301 218 223 269 125 136 160 229 272 193 177 170 168 163 157 162 169 173 173 173 178 184 187 193 199 204 204 201 198 196 193 190 188 187 188 192 195 192 187 186 186 187 185 182 180 179 177 178 180 184 188 193 194 198 206 212 216 220 228 241 248 258 265 269 275 277 279 278 279 281 281 280 278 278 279 279 278 279 279 277 274 267 265 264 260 258 256 252 250 250
296 199 193 209 176 173 256 291 286 272 285 256 124 158 219 262 186 175 174 174 169 164 166 171 176 175 176 178 181 188 195 198 202 202 198 196 196 193 192 189 187 189 192 195 193 185 182 183 184 182 179 178 179 181 182 183 186 192 197 197 201 209 210 213 219 231 250 255 260 264 271 278 279 280 282 285 289 290 291 292 291 292 290 287 285 283 282 279 273 270 269 267 265 263 256 253 253
195 163 148 201 191 175 216 259 285 42 27 235 139 195 258 298 175 174 177 177 173 174 172 174 178 176 180 183 184 190 195 198 201 200 196 195 197 196 194 190 188 191 192 193 191 183 180 182 182 180 177 177 179 181 182 184 187 192 198 201 206 212 211 212 217 231 241 246 252 262 271 277 278 281 288 294 296 297 299 298 298 299 297 294 289 286 285 285 283 281 280 276 273 270 266 261 259
164 160 137 169 187 223 241 249 267 35 98 223 182 207 218 152 180 179 178 180 179 180 175 177 181 180 184 185 189 196 196 197 200 199 197 196 198 198 195 192 190 192 192 190 188 182 181 180 179 178 177 178 180 181 181 184 188 192 198 206 212 210 204 202 208 225 237 249 262 277 284 284 284 289 297 301 304 306 307 310 311 310 305 299 294 292 291 290 290 290 288 285 279 273 269 267 265
142 140 134 168 173 246 264 265 285 325 122 253 207 204 209 171 188 188 177 180 178 178 181 183 183 184 186 185 192 199 197 199 201 200 200 199 199 198 195 193 191 193 192 189 186 182 180 178 178 178 178 181 182 181 182 185 190 192 198 208 206 193 187 193 211 234 253 275 290 297 297 295 295 302 308 309 312 314 316 320 320 318 311 303 300 298 299 299 299 298 296 293 288 282 276 276 277
116 128 142 181 182 237 261 269 298 320 139 275 208 188 232 194 195 196 175 176 183 183 185 189 187 185 186 187 192 196 196 200 203 203 201 199 200 197 195 193 191 192 189 185 184 181 178 177 179 181 180 182 182 181 182 185 187 186 192 191 185 191 197 205 226 251 275 293 299 300 298 297 300 307 311 311 313 316 317 317 316 315 311 305 301 298 298 298 299 302 302 299 298 293 287 284 285
131 130 130 172 224 250 281 293 313 334 155 267 201 173 248 242 207 205 180 183 194 192 188 189 187 182 184 189 191 192 195 201 204 204 200 199 201 196 193 192 190 190 186 183 183 179 177 177 181 184 183 183 183 183 183 182 184 188 191 191 193 197 204 221 234 251 267 275 283 290 294 298 303 308 308 307 310 313 315 314 312 310 306 302 298 296 296 295 297 298 298 299 298 294 291 290 289
179 165 149 203 227 169 271 298 313 308 204 245 152 160 278 304 179 217 206 199 198 197 195 191 187 186 189 193 193 192 195 199 202 203 199 199 200 196 193 191 189 188 186 185 183 178 177 178 181 183 183 184 184 184 183 183 188 193 194 198 213 226 235 251 257 262 264 264 272 282 293 301 306 308 305 305 308 311 312 312 309 306 303 301 298 297 297 296 296 295 293 292 289 288 289 290 288
202 193 178 183 182 170 208 280 322 330 342 15 109 57 313 295 151 201 220 214 207 199 196 193 192 193 194 195 194 193 196 199 201 201 199 200 200 196 193 191 188 187 187 186 183 179 177 178 179 180 182 184 185 186 186 190 193 194 204 220 241 257 267 278 280 281 281 281 282 286 295 300 302 304 303 305 308 310 312 311 308 305 302 302 300 300 299 297 297 294 293 290 284 284 285 286 286
220 218 193 174 157 168 222 309 25 30 349 314 106 53 296 296 209 202 201 208 212 196 192 194 193 194 195 192 191 193 197 201 202 201 200 201 201 196 192 191 189 188 187 185 183 182 180 180 181 181 183 184 186 190 193 195 198 204 229 247 263 277 287 293 291 289 288 288 289 290 295 297 299 304 307 310 312 313 315 315 311 305 302 301 300 299 298 297 296 294 293 290 285 284 283 281 281
218 226 187 169 146 149 181 148 63 96 244 271 93 151 254 321 274 225 196 190 198 192 192 194 188 189 192 189 189 193 197 201 201 200 200 202 201 195 191 190 188 188 186 184 184 184 184 186 187 185 185 187 189 194 199 204 214 229 252 273 286 291 294 296 295 295 294 295 296 295 296 298 300 304 307 309 311 311 314 314 311 306 303 302 299 297 297 295 294 292 291 288 286 284 280 277 275
228 225 167 159 144 151 162 121 115 212 254 309 22 125 210 302 264 247 209 191 195 189 192 195 189 189 191 190 190 193 198 200 198 198 200 202 200 194 190 188 187 186 184 184 186 188 189 191 192 189 185 186 188 195 206 217 236 258 279 290 292 292 294 296 297 300 301 302 302 298 295 296 299 301 303 306 309 311 312 311 309 306 304 303 300 298 296 294 292 290 288 285 282 280 278 279 277
237 206 154 161 156 160 163 143 185 247 354 300 308 132 183 270 272 301 184 192 198 193 192 192 190 190 191 192 193 194 198 200 197 196 199 200 196 191 188 184 182 182 184 187 188 191 196 195 193 189 184 183 187 198 214 232 254 271 280 280 281 284 286 290 295 300 303 305 305 303 298 296 296 297 298 303 309 313 314 313 311 309 307 305 302 300 297 295 292 289 288 287 284 280 277 277 278
222 149 113 123 131 138 149 157 182 110 107 244 251 186 171 271 279 12 108 195 205 201 197 191 189 190 191 193 194 194 197 199 198 196 197 199 194 190 189 184 179 180 182 185 190 197 200 196 192 188 183 184 190 203 224 244 254 260 260 258 266 276 282 288 294 300 305 308 310 308 303 298 295 293 293 298 304 309 311 311 310 309 307 305 301 299 296 295 293 291 289 287 284 282 278 276 275
142 123 90 68 65 76 85 98 113 103 255 246 217 188 171 264 278 210 169 213 202 193 193 191 190 189 192 195 195 195 196 197 194 191 194 198 197 196 193 186 182 182 181 182 190 201 204 199 195 191 187 189 196 208 230 246 243 240 244 252 266 275 281 285 292 301 307 309 308 304 300 297 296 296 297 299 302 305 305 305 305 304 303 300 298 296 294 295 295 293 291 287 285 282 279 276 272
124 122 116 93 22 27 42 9 54 160 249 263 213 183 162 204 262 234 226 262 226 193 186 185 188 192 195 195 195 196 196 194 189 189 195 195 193 196 193 190 187 184 185 190 193 202 209 207 202 199 197 198 203 214 235 247 241 241 249 262 274 277 279 282 293 307 309 307 305 301 298 297 298 301 302 303 302 301 301 301 302 302 301 299 296 295 295 295 295 295 293 292 290 287 283 278 273
136 123 128 124 65 51 177 275 177 213 244 271 223 163 159 228 245 234 240 261 261 233 205 188 186 192 195 193 194 193 190 187 184 186 191 188 189 193 192 193 192 184 185 193 197 203 211 213 212 212 211 208 214 231 250 252 243 246 257 267 277 284 289 294 303 309 308 306 305 303 303 303 304 307 307 306 305 304 303 302 302 302 302 300 298 297 297 297 297 297 296 295 293 291 287 282 275
163 152 147 148 142 156 202 225 233 247 247 281 268 164 198 269 261 240 251 254 255 267 248 208 194 194 193 191 192 188 181 181 180 181 182 184 190 193 192 194 194 187 185 187 192 199 206 210 214 216 214 216 226 241 250 245 240 253 267 273 282 291 297 300 300 301 301 300 299 300 303 305 307 308 309 309 310 309 307 304 303 302 302 302 301 300 299 300 300 300 298 297 294 291 288 282 275
174 150 135 150 160 161 189 205 199 228 243 289 301 177 194 222 224 240 258 271 268 263 238 208 200 199 192 187 187 181 175 177 181 183 183 189 198 198 194 191 186 185 188 188 190 196 199 201 208 211 215 226 234 238 243 245 248 264 278 282 287 293 295 295 296 298 298 297 298 300 302 303 304 305 307 308 309 307 305 303 302 302 303 305 305 304 303 304 304 304 304 302 298 294 289 283 278
199 130 119 169 181 145 133 187 178 172 204 255 217 206 211 197 225 254 246 261 257 209 161 162 176 185 181 181 182 175 170 173 179 183 183 189 198 199 193 186 180 182 189 194 194 195 196 198 209 220 224 229 228 228 241 251 253 261 273 280 284 287 288 288 292 294 294 295 299 302 302 302 303 304 305 306 306 306 304 303 303 305 308 308 308 307 307 307 307 307 309 309 305 301 293 283 279
175 150 168 184 161 117 109 203 110 103 168 238 199 194 296 310 307 271 161 178 175 147 136 140 152 165 172 177 176 168 167 169 174 179 182 187 192 193 189 182 179 182 184 187 188 194 203 208 217 226 224 224 225 228 236 245 249 254 262 269 275 280 283 285 288 289 291 294 298 300 301 302 303 304 305 307 308 308 306 305 307 310 311 310 308 307 309 309 308 309 311 310 308 305 297 281 274
138 184 188 143 121 102 111 161 357 69 187 253 21 156 223 265 271 177 153 166 166 152 139 135 145 156 163 168 164 161 163 166 170 175 180 184 185 186 183 177 177 180 178 180 186 197 210 214 214 218 221 224 228 230 229 235 245 252 259 267 273 277 281 284 286 290 294 297 298 301 303 305 307 308 310 311 310 308 307 308 311 312 312 309 306 307 311 311 309 309 311 310 307 304 299 287 273
136 176 177 140 166 218 134 144 192 149 203 276 329 219 211 200 210 181 168 177 169 153 143 138 147 154 153 153 154 153 155 158 164 170 175 179 181 183 181 175 175 179 182 186 193 201 209 211 210 215 224 228 230 237 243 250 256 261 267 271 274 278 282 284 286 290 294 296 299 303 306 309 312 313 314 312 310 310 311 313 315 315 314 311 308 309 313 314 313 312 312 312 310 304 299 294 284
82 135 175 166 164 184 161 148 168 168 191 247 277 265 242 228 214 188 181 179 163 154 156 154 156 156 151 150 151 152 152 152 154 159 165 169 171 175 177 176 176 181 187 190 193 195 198 201 208 220 233 239 246 258 265 268 268 267 268 270 273 278 281 284 285 287 292 296 301 305 309 312 314 314 314 314 314 315 315 316 318 319 317 315 313 313 315 316 317 317 316 315 313 308 301 297 293
125 147 180 194 119 112 145 153 130 140 157 187 193 240 254 245 222 196 180 170 166 164 162 158 155 154 153 153 152 150 149 147 149 155 159 154 152 157 165 168 171 175 176 176 181 184 187 197 213 228 239 248 259 267 269 270 269 266 266 268 271 274 275 282 288 290 294 299 305 310 313 312 312 314 316 317 318 317 315 317 322 323 321 319 320 321 321 321 322 323 322 319 317 314 308 300 296
159 171 182 180 153 118 149 205 247 111 129 164 165 214 262 258 245 216 176 164 171 163 152 147 148 150 150 151 150 147 144 142 146 151 152 145 143 147 152 152 154 157 158 163 174 186 201 216 229 240 248 253 258 263 265 265 262 260 260 259 260 266 272 280 287 291 296 303 311 316 315 313 315 317 319 319 318 316 315 320 327 328 326 325 326 327 328 328 328 327 326 324 319 316 314 308 300